Location: Huntsville
(41.2590°N, 111.7678°W)
Time: 08:17:36
(UTC+00:00)

Vanguard 3 - Pass Details

Date: 13 June 2021
Orbit: 508 x 3261 km, 33.4° (Epoch: 29 July)

Event Time Altitude Azimuth Distance (km) Brightness Sun altitude
Rises 16:12:21 0° 226° (SW) 2,784 9.7 45.7°
Reaches altitude 10° 16:14:34 10° 212° (SSW) 2,046 9.2 46.1°
Maximum altitude 16:18:28 26° 154° (SSE) 1,550 9.4 46.9°
Drops below altitude 10° 16:24:05 10° 100° (E) 3,046 11.1 47.9°
Sets 16:28:12 0° 90° (E) 4,507 11.6 48.6°
